Location: Umburanas
(4.5000°S, 37.9667°W)
Time: 19:05:56
(UTC+00:00)

SL-4 R/B - Pass Details

Date: 19 November 2019
Orbit: 428 x 667 km, 51.6° (Epoch: 09 December)

Event Time Altitude Azimuth Distance (km) Brightness Sun altitude
Rises 22:17:28 0° 207° (SSW) 2,443 6.1 -26.4°
Reaches altitude 10° 22:19:34 10° 202° (SSW) 1,595 4.9 -26.8°
Enters shadow 22:20:48 20° 194° (SSW) 1,134 4.0 -27.1°
